Regional Weather Roundup
Issued by NWS

Home | Current Version | Previous Version | Text Only | Print | Product List | Glossary Off
Versions: 1 2 3 4 5 6 7 8 9 10 11 12 13 14 15 16 17 18 19 20 21 22 23 24 25 26 27 28 29 30 31 32 33 34 35 36 37 38 39 40 41 42 43 44 45 46 47 48 49 50

000
ASUS43 KOAX 010010
RWRNE

WEATHER ROUNDUP FOR NEBRASKA
NATIONAL WEATHER SERVICE OMAHA NE
700 PM CDT SUN APR 30 2017

NOTES: SATELLITE DATA IS BEING USED TO AUGMENT CLOUD COVER ABOVE
       12000 FEET.
       "FAIR" INDICATES FEW OR NO CLOUDS BELOW 12,000 FEET WITH NO
       SIGNIFICANT WEATHER AND/OR OBSTRUCTIONS TO VISIBILITY.

  * THESE STATIONS DO NOT REPORT WEATHER SUCH AS RAIN...SNOW OR FOG.

NEZ001>004-019>022-054>056-010100-
NEBRASKA PANHANDLE

CITY           SKY/WX    TMP DP  RH WIND       PRES   REMARKS
SCOTTSBLUFF    SUNNY     58  24  27 N17       29.84S
6HR MIN TEMP:  50; 6HR MAX TEMP:  59;

ALLIANCE       CLOUDY    54  20  26 N23       29.81S
6HR MIN TEMP:  49; 6HR MAX TEMP:  56;

CHADRON        CLOUDY    57  24  28 N16       29.83F
6HR MIN TEMP:  50; 6HR MAX TEMP:  59;

KIMBALL        SUNNY     54  20  27 N20G29    29.83S
SIDNEY         CLOUDY    54  22  28 N28G38    29.80S
6HR MIN TEMP:  48; 6HR MAX TEMP:  56;

$$

NEZ057>060-069>072-079>082-010100-
SOUTHWEST NEBRASKA

CITY           SKY/WX    TMP DP  RH WIND       PRES   REMARKS
NORTH PLATTE   CLOUDY    41  30  65 N23G35    29.74S
6HR MIN TEMP:  34; 6HR MAX TEMP:  43; 6HR PCP:  0.07;

IMPERIAL       CLOUDY    48  19  31 N24G36    29.74S
6HR MIN TEMP:  43; 6HR MAX TEMP:  48;

LEXINGTON      LGT SNOW  35  32  90 N29G39    29.67R WCI  21
MCCOOK         LGT SNOW  34  50 100 N31G38    29.72S WCI  20
6HR MIN TEMP:  33; 6HR MAX TEMP:  34; 6HR PCP:  0.25;

OGALLALA       CLOUDY    52  21  29 N21G28    29.76S
$$

NEZ005>010-023>029-035>040-094-010100-
NORTH CENTRAL NEBRASKA

CITY           SKY/WX    TMP DP  RH WIND       PRES   REMARKS
VALENTINE      CLOUDY    51  17  26 N15G25    29.79S
6HR MIN TEMP:  48; 6HR MAX TEMP:  52;

AINSWORTH      CLOUDY    45  25  44 N14       29.76S
BROKEN BOW     LGT SNOW  34  33  96 N32G40    29.68F FOG     WCI  20
6HR MIN TEMP:  33; 6HR MAX TEMP:  34; 6HR PCP:  0.22;

O`NEILL        SNOW      33  32  94 N18       29.73F VSB 1/2 WCI  22
ORD            SNOW      33  31  92 N26G32    29.65F VSB 1/2 WCI  20
6HR MIN TEMP:  33; 6HR MAX TEMP:  35; 6HR PCP:  0.86;

THEDFORD       CLOUDY    47  21  34 N17G26    29.75S
$$

NEZ041-046>049-061>064-073>077-083>087-010100-
SOUTH CENTRAL NEBRASKA

CITY           SKY/WX    TMP DP  RH WIND       PRES   REMARKS
GRAND ISLAND   CLOUDY    35  35 100 N21       29.61R WCI  24
6HR MIN TEMP:  33; 6HR MAX TEMP:  36; 6HR PCP:  0.24;

AURORA         LGT RAIN  37  36  96 N22G31    29.58R WCI  25
HASTINGS       LGT SNOW  36  34  92 N23G30    29.58S FOG     WCI  24
6HR MIN TEMP:  34; 6HR MAX TEMP:  37; 6HR PCP:  0.11;

HEBRON         CLOUDY    40  39  97 NE17G24   29.50S FOG     WCI  31
HOLDREGE       LGT SNOW  33  32  95 N20G26    29.64R WCI  22
KEARNEY *      CLOUDY    34  30  86 N18       29.64R WCI  23
YORK           MIX PCPN  37  37 100 N22G30    29.55S WCI  27
$$

NEZ011>018-030>034-042>045-010100-
NORTHEAST NEBRASKA

CITY           SKY/WX    TMP DP  RH WIND       PRES   REMARKS
NORFOLK        FLURRIES  35  32  88 N21G32    29.58F WCI  24
6HR MIN TEMP:  33; 6HR MAX TEMP:  38; 6HR PCP:  1.08;

ALBION         RAIN      36  32  88 N24G33    29.57F WCI  24
BLAIR          LGT RAIN  41  40  96 N16G23    29.52S
FREMONT        CLOUDY    41  39  95 N13G18    29.56R
TEKAMAH        CLOUDY    41  39  93 N20G30    29.51F
6HR MIN TEMP:  40; 6HR MAX TEMP:  42; 6HR PCP:  0.69;

WAYNE          LGT SNOW  36  36  99 N22       29.61F WCI  24
$$

NEZ050>053-065>068-078-088>093-010100-
SOUTHEAST NEBRASKA

CITY           SKY/WX    TMP DP  RH WIND       PRES   REMARKS
LINCOLN        CLOUDY    43  40  89 NE21      29.52F
6HR MIN TEMP:  41; 6HR MAX TEMP:  43; 6HR PCP:  0.17;

OMAHA EPPLEY   LGT RAIN  43  39  86 N13       29.54R FOG
6HR MIN TEMP:  43; 6HR MAX TEMP:  44; 6HR PCP:  0.54;

BEATRICE       LGT RAIN  44  42  95 NE16G25   29.47F
FALLS CITY     CLOUDY    51  46  83 S8        29.45S
6HR MIN TEMP:  48; 6HR MAX TEMP:  55; 6HR PCP:  0.17;

NEBRASKA CITY  DRIZZLE   44  44 100 NE14G22   29.49R
PLATTSMOUTH    CLOUDY    43  40  88 N12G18    29.51R
$$

NEZ044-045-051>053-067-010100-
OMAHA AREA

CITY           SKY/WX    TMP DP  RH WIND       PRES   REMARKS
OMAHA EPPLEY   LGT RAIN  43  39  86 N13       29.54R FOG
6HR MIN TEMP:  43; 6HR MAX TEMP:  44; 6HR PCP:  0.54;

BLAIR          LGT RAIN  41  40  96 N16G23    29.52S
FREMONT        CLOUDY    41  39  95 N13G18    29.56R
MILLARD        CLOUDY    45  41  88 NE8       29.53R
OFFUTT AFB     CLOUDY    45  41  87 N8        29.50F
PLATTSMOUTH    CLOUDY    43  40  88 N12G18    29.51R
WAHOO          CLOUDY    41  38  90 NE20G26   29.54S
$$



USA.gov is the U.S. government's official web portal to all federal, state and local government web resources and services.